| time (UTC) | temp C | wind direction | speed KPH | gust KPH | rain 1hr cm | rain 24hr cm | rain mn cm | humidity % | barometer mb |
| 20260906160016 | 23 | 0.0 | 6.4 | 0.00 | 0.03 | 0.00 | 65 | 1019.9 | |
| 20260906153036 | 21 | 0.0 | 4.8 | 0.00 | 0.03 | 0.00 | 71 | 1019.9 | |
| 20260906150015 | 21 | 0.0 | 4.8 | 0.00 | 0.03 | 0.00 | 75 | 1020.0 | |
| 20260906143015 | 19 | 0.0 | 1.6 | 0.00 | 0.03 | 0.00 | 77 | 1020.0 | |
| 20260906140035 | 18 | 0.0 | 0.0 | 0.00 | 0.03 | 0.00 | 78 | 1020.2 | |
| 20260906133016 | 16 | 0.0 | 1.6 | 0.00 | 0.03 | 0.00 | 78 | 1020.0 | |
| 20260906130015 | 15 | 0.0 | 1.6 | 0.00 | 0.03 | 0.00 | 77 | 1019.5 | |
| 20260906123016 | 14 | 0.0 | 0.0 | 0.00 | 0.03 | 0.00 | 77 | 1019.2 | |
| 20260906120015 | 13 | 0.0 | 0.0 | 0.00 | 0.03 | 0.00 | 77 | 1019.1 | |
| 20260906113016 | 13 | 0.0 | 1.6 | 0.00 | 0.03 | 0.00 | 77 | 1019.0 | |
| 20260906110016 | 13 | 0.0 | 0.0 | 0.00 | 0.03 | 0.00 | 77 | 1018.7 | |
| 20260906103015 | 13 | 0.0 | 0.0 | 0.00 | 0.03 | 0.00 | 77 | 1018.7 | |
| 20260906100016 | 13 | 0.0 | 0.0 | 0.00 | 0.03 | 0.00 | 77 | 1018.5 | |
| 20260906093015 | 13 | 0.0 | 0.0 | 0.00 | 0.03 | 0.00 | 78 | 1018.7 | |
| 20260906090016 | 14 | 0.0 | 0.0 | 0.00 | 0.03 | 0.00 | 77 | 1018.6 | |
| 20260906083016 | 14 | 0.0 | 0.0 | 0.00 | 0.03 | 0.00 | 77 | 1018.6 | |
| 20260906080015 | 15 | 0.0 | 0.0 | 0.00 | 0.03 | 0.00 | 77 | 1018.6 | |
| 20260906073015 | 15 | 0.0 | 0.0 | 0.00 | 0.03 | 0.00 | 77 | 1018.2 | |
| 20260906070056 | 15 | 0.0 | 0.0 | 0.00 | 0.03 | 0.00 | 78 | 1018.2 | |
| 20260906063015 | 15 | 0.0 | 0.0 | 0.00 | 0.03 | 0.00 | 77 | 1018.6 | |
| 20260906060016 | 15 | 0.0 | 0.0 | 0.00 | 0.03 | 0.00 | 78 | 1018.2 | |
| 20260906053015 | 15 | 0.0 | 0.0 | 0.00 | 0.03 | 0.00 | 78 | 1018.0 | |
| 20260906050036 | 16 | 0.0 | 0.0 | 0.00 | 0.03 | 0.03 | 78 | 1017.6 | |
| 20260906043016 | 16 | 0.0 | 0.0 | 0.00 | 0.03 | 0.03 | 78 | 1017.2 | |
| 20260906040015 | 16 | 0.0 | 0.0 | 0.00 | 0.03 | 0.03 | 79 | 1017.1 | |
| 20260906033016 | 16 | 0.0 | 0.0 | 0.00 | 0.03 | 0.03 | 79 | 1017.1 | |
| 20260906030016 | 16 | 0.0 | 0.0 | 0.00 | 0.03 | 0.03 | 79 | 1016.8 | |
| 20260906023056 | 17 | 0.0 | 0.0 | 0.00 | 0.03 | 0.03 | 79 | 1016.7 | |
| 20260906020016 | 17 | 0.0 | 0.0 | 0.00 | 0.03 | 0.03 | 78 | 1016.4 | |
| 20260906013015 | 18 | 0.0 | 0.0 | 0.00 | 0.03 | 0.03 | 78 | 1016.3 | |
| 20260906010016 | 19 | 0.0 | 0.0 | 0.00 | 0.03 | 0.03 | 77 | 1016.2 | |
| 20260906003016 | 20 | 0.0 | 0.0 | 0.00 | 0.03 | 0.03 | 77 | 1015.9 | |
| 20260906000016 | 21 | 0.0 | 1.6 | 0.00 | 0.03 | 0.03 | 75 | 1016.0 | |
| 20260905233036 | 22 | 0.0 | 1.6 | 0.00 | 0.03 | 0.03 | 74 | 1016.0 | |
| 20260905230036 | 23 | 0.0 | 1.6 | 0.00 | 0.03 | 0.03 | 71 | 1016.2 | |
| 20260905223016 | 23 | 0.0 | 3.2 | 0.00 | 0.03 | 0.03 | 70 | 1016.2 | |
| 20260905220016 | 24 | 0.0 | 3.2 | 0.00 | 0.03 | 0.03 | 68 | 1016.3 | |
| 20260905213015 | 24 | 0.0 | 6.4 | 0.00 | 0.03 | 0.03 | 70 | 1016.4 | |
| 20260905210016 | 23 | 0.0 | 3.2 | 0.00 | 0.03 | 0.03 | 71 | 1016.3 | |
| 20260905203036 | 25 | 315 | 1.6 | 9.7 | 0.00 | 0.03 | 0.03 | 63 | 1016.3 |
| 20260905200016 | 25 | 203 | 1.6 | 11.3 | 0.00 | 0.03 | 0.03 | 64 | 1016.4 |
| 20260905193036 | 23 | 0.0 | 8.0 | 0.00 | 0.03 | 0.03 | 67 | 1016.3 | |
| 20260905190016 | 23 | 338 | 1.6 | 11.3 | 0.00 | 0.03 | 0.03 | 68 | 1016.6 |
| 20260905183035 | 23 | 0.0 | 9.7 | 0.00 | 0.03 | 0.03 | 67 | 1016.8 | |
| 20260905180016 | 23 | 338 | 1.6 | 8.0 | 0.00 | 0.03 | 0.03 | 69 | 1016.7 |
| 20260905173016 | 23 | 338 | 1.6 | 8.0 | 0.00 | 0.03 | 0.03 | 71 | 1016.7 |
| 20260905170016 | 23 | 315 | 1.6 | 9.7 | 0.03 | 0.03 | 0.03 | 72 | 1017.3 |
| 20260905163015 | 22 | 203 | 1.6 | 11.3 | 0.03 | 0.03 | 0.03 | 73 | 1017.3 |